Location: Kolin
(50.0330°N, 15.2000°E)
Time: 08:13:16
(UTC+02:00)

Gurwin Techsat 1B - Pass Details

Date: 19 August 2022
Orbit: 811 x 814 km, 98.8° (Epoch: 25 September)

Event Time Altitude Azimuth Distance (km) Brightness Sun altitude
Rises 05:13:28 0° 6° (N) 3,352 12.4 -6.8°
Reaches altitude 10° 05:16:13 10° 353° (N) 2,415 11.4 -6.4°
Maximum altitude 05:20:21 24° 302° (WNW) 1,652 10.0 -5.8°
Drops below altitude 10° 05:24:29 10° 251° (WSW) 2,402 10.4 -5.2°
Enters shadow 05:25:33 - 245° (WSW) 2,744 10.7 -5.1°
